Cedar Rapids, IA

8:59 PM CDT on March 28, 2017 (GMT -0500)
The Eastern Iowa Airport

Weather History for KCID - August, 2014

Change the Weather History Date:

Sunday, August 17, 2014

  Actual Average Record
Temperature  
Mean Temperature 72 °F 71 °F  
Max Temperature 84 °F 82 °F 100 °F (1988)
Min Temperature 59 °F 61 °F 46 °F (1924)
Degree Days  
Heating Degree Days 0 0  
Month to date heating degree days 0 0  
Since 1 June heating degree days 24 33  
Since 1 July heating degree days 19 4  
Cooling Degree Days 7 7  
Month to date cooling degree days 88 121  
Year to date cooling degree days 485 588  
Since 1 June cooling degree days 405 539  
Growing Degree Days 21 (Base 50)    
Moisture  
Dew Point 65 °F    
Average Humidity 79    
Maximum Humidity 100    
Minimum Humidity 58    
Precipitation  
Precipitation 0.00 in 0.15 in 1.25 in (1990)
Month to date precipitation 0.46 2.47  
Year to date precipitation 28.56 23.29  
Sea Level Pressure  
Sea Level Pressure 29.93 in    
Wind  
Wind Speed 4 mph (NE)    
Max Wind Speed 12 mph    
Max Gust Speed 14 mph    
Visibility 5 miles    
Events Fog    
T = Trace of Precipitation, MM = Missing Value Source: NWS Daily Summary

Daily Weather History Graph

Daily Weather History Graph

Search for Another Location

Airport or City:

Trip Planner

Search our weather history database for the weather conditions in past years. The results will help you decide how hot, cold, wet, or windy it might be!

Date:

Astronomy

Aug. 17, 2014 Rise Set
Actual Time 6:17 AM CDT 8:03 PM CDT
Civil Twilight 5:47 AM CDT 8:33 PM CDT
Nautical Twilight 5:10 AM CDT 9:09 PM CDT
Astronomical Twilight 4:31 AM CDT 9:48 PM CDT
Moon No Moon Rise 2:10 PM CDT (8/17)
Length of Visible Light 14h 46m
Length of Day
13h 46m
Waning Gibbous, 48% of the Moon is Illuminated
Aug 17
Waning Gibbous
Aug 25
New
Sep 2
First Quarter
Sep 8
Full
Sep 15
Last Quarter

Hourly Weather History & Observations

Time (CDT) Temp. Heat Index Dew Point Humidity Pressure Visibility Wind Dir Wind Speed Gust Speed Precip Events Conditions
12:52 AM 64.0 °F - 64.0 °F 100% 29.92 in 2.5 mi NNW 5.8 mph - N/A   Scattered Clouds
12:58 AM 64.0 °F - 63.0 °F 96% 29.93 in 1.2 mi NNW 6.9 mph - N/A   Mostly Cloudy
1:06 AM 63.0 °F - 63.0 °F 100% 29.93 in 0.5 mi NNW 5.8 mph - N/A Fog Fog
1:19 AM 63.0 °F - 63.0 °F 100% 29.93 in 1.2 mi NNW 4.6 mph - N/A   Overcast
1:30 AM 63.0 °F - 63.0 °F 100% 29.93 in 3.0 mi NNW 3.5 mph - N/A   Overcast
1:52 AM 62.6 °F - 62.6 °F 100% 29.92 in 3.0 mi Calm Calm - N/A   Mostly Cloudy
2:11 AM 63.0 °F - 63.0 °F 100% 29.91 in 1.8 mi North 3.5 mph - N/A   Partly Cloudy
2:24 AM 64.0 °F - 64.0 °F 100% 29.91 in 2.5 mi NNW 3.5 mph - N/A   Clear
2:30 AM 64.0 °F - 64.0 °F 100% 29.91 in 0.8 mi North 3.5 mph - N/A   Clear
2:50 AM 64.4 °F - 64.4 °F 100% 29.91 in 1.8 mi NNW 3.5 mph - N/A   Partly Cloudy
2:51 AM 63.0 °F - 63.0 °F 100% 29.90 in 1.8 mi NNW 3.5 mph - N/A   Partly Cloudy
2:58 AM 62.1 °F - 62.1 °F 100% 29.91 in 0.2 mi North 3.5 mph - N/A Fog Fog
3:52 AM 62.1 °F - 62.1 °F 100% 29.90 in 0.2 mi NNW 3.5 mph - N/A Fog Fog
4:07 AM 60.8 °F - 60.8 °F 100% 29.91 in 0.2 mi NW 5.8 mph - N/A Fog Fog
4:52 AM 61.0 °F - 61.0 °F 100% 29.90 in 0.2 mi NNW 5.8 mph - N/A Fog Fog
5:52 AM 61.0 °F - 61.0 °F 100% 29.92 in 0.2 mi Calm Calm - N/A Fog Fog
6:52 AM 61.0 °F - 61.0 °F 100% 29.93 in 0.2 mi NNW 6.9 mph - N/A Fog Fog
7:49 AM 64.4 °F - 64.4 °F 100% 29.96 in 0.2 mi NNE 3.5 mph - N/A Fog Fog
7:52 AM 64.0 °F - 64.0 °F 100% 29.95 in 0.5 mi NNE 4.6 mph - N/A Fog Fog
7:56 AM 64.9 °F - 64.9 °F 100% 29.96 in 0.8 mi NNE 4.6 mph - N/A   Overcast
8:17 AM 66.9 °F - 66.9 °F 100% 29.97 in 4.0 mi East 5.8 mph - N/A   Mostly Cloudy
8:52 AM 69.1 °F - 68.0 °F 96% 29.96 in 7.0 mi East 8.1 mph - N/A   Mostly Cloudy
9:19 AM 70.0 °F - 68.0 °F 93% 29.97 in 10.0 mi ENE 8.1 mph - N/A   Overcast
9:52 AM 73.0 °F - 68.0 °F 84% 29.96 in 10.0 mi East 5.8 mph - N/A   Mostly Cloudy
10:06 AM 75.0 °F - 66.9 °F 76% 29.98 in 8.0 mi East 8.1 mph - N/A   Mostly Cloudy
10:52 AM 75.9 °F - 68.0 °F 76% 29.97 in 10.0 mi East 8.1 mph - N/A   Mostly Cloudy
11:52 AM 77.0 °F - 68.0 °F 74% 29.97 in 10.0 mi East 5.8 mph - N/A   Mostly Cloudy
12:52 PM 79.0 °F - 68.0 °F 69% 29.96 in 10.0 mi SSE 3.5 mph - N/A   Mostly Cloudy
1:52 PM 80.1 °F 82.3 °F 66.9 °F 64% 29.95 in 10.0 mi Variable 4.6 mph - N/A   Mostly Cloudy
2:52 PM 82.0 °F 84.5 °F 66.9 °F 60% 29.94 in 10.0 mi SE 6.9 mph - N/A   Mostly Cloudy
3:52 PM 82.9 °F 85.4 °F 66.9 °F 58% 29.93 in 10.0 mi ESE 6.9 mph - N/A   Mostly Cloudy
4:52 PM 82.9 °F 85.4 °F 66.9 °F 58% 29.92 in 10.0 mi SE 4.6 mph - N/A   Partly Cloudy
5:52 PM 81.0 °F 83.3 °F 66.9 °F 62% 29.91 in 10.0 mi SSE 3.5 mph - N/A   Clear
6:52 PM 79.0 °F - 68.0 °F 69% 29.89 in 10.0 mi SE 5.8 mph - N/A   Clear
7:52 PM 75.9 °F - 68.0 °F 76% 29.89 in 10.0 mi SE 3.5 mph - N/A   Clear
8:52 PM 73.0 °F - 66.9 °F 81% 29.91 in 9.0 mi Calm Calm - N/A   Clear
9:52 PM 69.1 °F - 66.9 °F 93% 29.93 in 7.0 mi SSE 3.5 mph - N/A   Clear
9:53 PM 69.1 °F - 66.9 °F 93% 29.94 in 7.0 mi SSE 3.5 mph - N/A   Partly Cloudy
10:52 PM 68.0 °F - 66.0 °F 93% 29.92 in 6.0 mi SSE 3.5 mph - N/A   Partly Cloudy
11:52 PM 68.0 °F - 66.9 °F 96% 29.91 in 5.0 mi ESE 4.6 mph - N/A   Clear